Regional Weather Roundup
Issued by NWS

Home | Current Version | Previous Version | Graphics & Text | Print | Product List | Glossary On
Versions: 1 2 3 4 5 6 7 8 9 10 11 12 13 14 15 16 17 18 19 20 21 22 23 24 25 26 27 28 29 30 31 32 33 34 35 36 37 38 39 40 41 42 43 44 45 46 47 48 49 50
000
ASUS43 KLMK 020102
RWRKY
KENTUCKY REGIONAL WEATHER ROUNDUP
NATIONAL WEATHER SERVICE LOUISVILLE KY
900 PM EDT FRI AUG 01 2014

NOTE "FAIR" INDICATES FEW OR NO CLOUDS BELOW 12,000 FEET
WITH NO SIGNIFICANT WEATHER AND/OR OBSTRUCTIONS TO VISIBILITY.

KYZ001>023-026-027-061>063-070>075-020200-
WESTERN AND SOUTH CENTRAL KENTUCKY

CITY           SKY/WX    TMP DP  RH WIND       PRES   REMARKS
PADUCAH        CLEAR     76  68  76 CALM      30.02S
HENDERSON      CLOUDY   N/A N/A N/A MISG        N/A
OWENSBORO      CLEAR     80  63  56 NE5       30.04R
HOPKINSVILLE   PTCLDY    81  57  44 NW5       30.02S
BOWLING GREEN  MOCLDY    78  55  44 NE3       30.04R
GLASGOW        CLEAR     75  59  57 CALM      30.04R
$$

KYZ024-025-028>034-038-045-046-053-020200-
NORTH CENTRAL KENTUCKY

CITY           SKY/WX    TMP DP  RH WIND       PRES   REMARKS
LOUISVILLE/SDF PTCLDY    80  55  42 SW5       30.04R
LOUISVILLE/LOU PTCLDY    80  56  43 CALM      30.04S
FORT KNOX      CLEAR     70  64  82 N2        30.04R
$$

KYZ035>037-039>044-047>052-055>060-089>105-020200-
NORTHEAST KENTUCKY

CITY           SKY/WX    TMP DP  RH WIND       PRES   REMARKS
LEXINGTON      CLEAR     76  59  55 NE7       30.07R
COVINGTON      PTCLDY    75  60  59 CALM      30.06S
FRANKFORT      CLEAR     74  62  66 CALM      30.05R
$$

KYZ054-064>069-076>088-106>120-020200-
SOUTHEAST KENTUCKY

CITY           SKY/WX    TMP DP  RH WIND       PRES   REMARKS
JACKSON        PTCLDY    75  62  64 CALM      30.07S
LONDON         PTCLDY    74  67  78 CALM      30.07R
SOMERSET       NOT AVBL
MIDDLESBORO    CLOUDY    73  67  79 CALM      30.07S
MONTICELLO     PTCLDY    72  67  84 CALM      30.07S
$$



USA.gov is the U.S. government's official web portal to all federal, state and local government web resources and services.